Location: Northcutt
(34.7304°N, 84.4305°W)
Time: 03:16:01
(UTC+00:00)

A-11 Canister half - Pass Details

Date: 10 October 2022
Orbit: 1524 x 1685 km, 47.3° (Epoch: 01 December)

Event Time Altitude Azimuth Distance (km) Brightness Sun altitude
Rises 20:42:02 0° 274° (W) 4,676 12.3 27.6°
Reaches altitude 10° 20:45:22 10° 281° (WNW) 3,689 11.8 27.0°
Maximum altitude 20:53:58 40° 350° (N) 2,109 9.9 25.5°
Drops below altitude 10° 21:02:40 10° 58° (ENE) 3,729 10.5 23.9°
Sets 21:06:04 0° 65° (ENE) 4,732 11.0 23.3°
